This is the latest recevied weather packets stored in our database for station/object VA2CPJ. If no packets are shown the sender has not sent any weather packets the latest 10 day(s).
| Time | Temp. | Humidity | Pressure | Rain* | Wind** | Luminosity | Snow |
|---|---|---|---|---|---|---|---|
| 1777979424 | 10° C | 81% | 1009.9 hPa | - | - | - | - |
| 1777979141 | 9.44° C | 82% | 1010.6 hPa | - | - | - | - |
| 1777977627 | 8.89° C | 84% | 1009.9 hPa | - | - | - | - |
| 1777974626 | 6.67° C | 89% | 1010.2 hPa | - | - | 1389 W/m² | - |
| 1777972221 | 6.67° C | 89% | 1010.2 hPa | - | - | 24 W/m² | - |
| 1777971021 | 6.67° C | 89% | 1010.2 hPa | - | - | 0 W/m² | - |
| 1777970426 | 6.67° C | 89% | 1010.2 hPa | - | - | 0 W/m² | - |
| 1777968956 | 6.67° C | 89% | 1011.3 hPa | - | - | 0 W/m² | - |
| 1777965937 | 7.22° C | 89% | 1011.6 hPa | - | - | 0 W/m² | - |
| 1777965333 | 7.22° C | 89% | 1011.6 hPa | - | - | 0 W/m² | - |
| 1777964125 | 6.67° C | 88% | 1011.6 hPa | - | - | 0 W/m² | - |
| 1777962410 | 7.22° C | 86% | 1011.9 hPa | - | - | 0 W/m² | - |
| 1777958123 | 7.78° C | 86% | 1013 hPa | - | - | 0 W/m² | - |
| 1777957554 | 7.78° C | 86% | 1013 hPa | - | - | 0 W/m² | - |
| 1777957539 | 7.78° C | 86% | 1013 hPa | - | - | 0 W/m² | - |
| 1777955743 | 7.78° C | 86% | 1013.7 hPa | - | - | 0 W/m² | - |
| 1777955725 | 7.78° C | 86% | 1013.3 hPa | - | - | 0 W/m² | - |
| 1777954240 | 8.33° C | 83% | 1012.6 hPa | - | - | 0 W/m² | - |
| 1777953319 | 8.33° C | 83% | 1013.3 hPa | - | - | 0 W/m² | - |
| 1777952724 | 8.33° C | 83% | 1013.7 hPa | - | - | 0 W/m² | - |
| 1777950055 | 8.33° C | 79% | 1013.3 hPa | - | - | 0 W/m² | - |
| 1777949723 | 8.33° C | 79% | 1014 hPa | - | - | 0 W/m² | - |
| 1777949430 | 8.89° C | 79% | 1013 hPa | - | - | 0 W/m² | - |
| 1777948533 | 8.89° C | 78% | 1014 hPa | - | - | 0 W/m² | - |
| 1777947921 | 8.33° C | 79% | 1014.3 hPa | - | - | 0 W/m² | - |
* Rain since midnight (hover to see other rain measurements)
** Current wind speed in m/s (hover to see current wind gust speed)